Warning: Javascript must be enabled to use all the features on this page!


Page Loading - Please Wait...

Click to hideNews Bulletins

Peak Streamflow for Idaho

Click to hide state-specific text

USGS 13120500 BIG LOST RIVER AT HOWELL RANCH NR CHILLY ID

Custer County, Idaho
Hydrologic Unit Code 17040218
Latitude  43°59'54", Longitude 114°01'16" NAD83
Drainage area 440  square miles
Gage datum 6,626.34 feet above NAVD88
Output formats
Table
Graph
Tab-separated file
peakfq (watstore) format
Reselect output format
Water
Year
Date Gage
Height
(feet)
Stream-
flow
(cfs)
1904 1904-06-19   1,6001,5
1905 1905-06-13   1,3601,5
1906 1906-06-13   2,3801,5
1907 1907-07-03 4.85 2,2101,5
1908 1908-06-15   2,0301,5
1909 1909-06-05   2,8801,5
1910 1910-06-17 3.603 9155
1911 1911-06-20   3,4201,5
1912 1912-06-08 6.603 2,0305
1913 1913-05-28 7.203 2,8205
1914 1914-06-03 7.143 2,5405
1920 1920-06-15 4.05 1,6205
1921 1921-06-12 5.94 3,5005
1922 1922-06-15 5.50 3,3605
1923 1923-06-13 4.68 2,3605
1924 1924-05-17 3.13 9325
1925 1925-06-22 4.50 2,2405
1926 1926-05-20 2.98 8315
1927 1927-06-13 4.64 2,4905
1928 1928-05-27 4.18 2,0205
1929 1929-06-16 3.74 1,5605
1930 1930-06-11 4.10 1,9105
1931 1931-05-14 2.84 8355
1932 1932-06-24 4.53 2,4005
1933 1933-06-16 4.08 1,9105
1934 1934-05-08 2.52 6395
1935 1935-06-09 4.37 2,2605
1936 1936-05-15 3.22 1,2305
1937 1937-06-22 2.80 9105
1938 1938-06-06 5.17 3,1705
1939 1939-05-31 2.89 1,0005
1940 1940-06-01 3.32 1,3505
1941 1941-05-27 3.52 1,5305
1942 1942-06-08 4.10 2,0705
1943 1943-06-19 4.28 2,3705
1944 1944-07-01 4.26 2,3105
1945 1945-06-26 3.85 1,8905
1946 1946-06-05 3.59 1,6605
1947 1947-05-08 3.85 1,8905
1948 1948-06-09 4.35 2,3905
1949 1949-05-16 3.57 1,5505
1950 1950-06-07 3.44 1,5305
1951 1951-05-28 4.24 2,2105
1952 1952-06-07 4.90 2,9605
1953 1953-06-19 4.38 2,4005
1954 1954-06-26 6.00 3,9605
1955 1955-06-12 3.78 1,7405
1956 1956-05-24 5.16 3,4105
1957 1957-06-06 5.27 3,5705
1958 1958-05-24 5.36 3,2805
1959 1959-06-14 3.77 1,6705
1960 1960-06-03 3.71 1,5505
1961 1961-06-10 3.64 1,4605
1962 1962-06-21 4.18 2,1105
1963 1963-06-15 4.68 2,5805
1964 1964-06-27 4.29 2,0505
1965 1965-06-12 5.73 3,4505
1966 1966-05-29 3.37 1,1505
1967 1967-05-25 6.02 4,4205
1968 1968-06-20 4.21 2,1105
1969 1969-05-27 4.96 3,1405
1970 1970-06-28 5.03 3,2405
1971 1971-06-23 4.88 2,8105
1972 1972-06-08 5.01 3,2305
1973 1973-05-19 4.08 1,9905
1974 1974-06-16 5.41 3,5105
1975 1975-06-07 5.24 3,3105
1976 1976-05-28 4.05 1,8605
1977 1977-06-08 3.89 1,7005
1978 1978-06-10 4.36 2,3105
1979 1979-05-24   2,0201,5
1980 1980-07-03 4.26 2,0805
1981 1981-06-09 4.92 2,9605
1982 1982-06-22 5.47 2,9305
1983 1983-06-11 5.52 3,7205
1984 1984-07-29 5.17 3,2705
1985 1985-09-07 3.34 1,2005
1986 1986-06-04 5.48 3,8605
1987 1987-05-17 3.99 1,7905
1988 1988-06-05 3.53 1,3605
1989 1989-06-16 3.61 1,4405
1990 1990-06-10 4.25 2,2205
1991 1991-06-12 4.48 2,5305
1992 1992-05-08 2.63 7095
1993 1993-05-21 4.39 2,4405
1994 1994-05-13 3.19 1,2105
1995 1995-07-10 5.17 3,6905
1996 1996-06-10 4.62 2,9405
1997 1997-06-05 4.81 3,1605
1998 1998-06-26 4.20 2,4605
1999 1999-06-17 4.71 3,2205
2000 2000-05-24 3.38 1,4705
2001 2001-05-15 2.75 9275
2002 2002-06-01 3.62 1,7305
2003 2003-05-31   3,1001,5
2004 2004-06-06   1,1101,5
2005 2005-05-19 4.81 3,3805
2006 2006-05-21 5.68 5,0105
2007 2007-05-13 2.96 1,0805
2008 2008-05-19 3.58 1,7505
2009 2009-06-20 4.13 2,3605
2010 2010-06-07 4.57 3,0005
2011 2011-06-24 4.34 2,6505
2012 2012-04-27 4.36 2,6805
2013 2013-06-11 3.32 1,4105
2014 2014-05-28 3.03 1,1405
2015 2015-06-10 3.452 1,5405
2016 2016-06-06 4.01 2,2005
2017 2017-06-05 5.28 4,2205
2018 2018-05-26 4.15 2,5205
2019 2019-06-07 4.402 2,7405
2020 2020-05-31 3.52 1,6805
?
  Peak Gage-Height Qualification Codes.
?
  Peak Streamflow Qualification Codes.